RH
49 35 31 37 46 44 41 45 33 35 36 26 24 31 37 38 53 66 28 30 31 35 46 59 85 83 80 82 80 77 75 75 75 75 76 75 73 74 74 73 75 78 75 72 71 72 74 71 76
28 30 34 32 54 74 48 34 41 33 28 27 26 26 33 43 35 32 32 31 30 33 38 46 86 84 81 81 81 79 74 74 75 75 76 74 73 72 72 71 72 72 74 75 72 70 69 74 73
34 35 36 44 53 62 46 36 34 30 27 26 26 26 29 40 35 31 29 29 28 33 33 55 85 83 81 81 82 80 78 74 75 76 75 74 72 71 71 71 72 71 69 69 73 72 70 69 72
31 32 33 72 38 39 34 33 28 27 25 24 25 34 37 33 32 29 29 27 28 31 39 75 84 82 82 82 81 79 78 78 76 77 75 73 71 70 70 70 71 71 71 70 68 71 74 71 69
29 28 52 49 34 34 30 28 28 30 28 26 27 33 40 40 30 29 29 26 27 35 45 56 82 82 81 79 77 77 78 79 78 77 76 73 70 69 70 69 67 66 65 65 69 68 71 68 68
35 47 57 42 34 31 28 28 32 30 28 27 28 36 43 35 33 30 27 26 27 38 37 51 77 79 79 77 77 78 77 77 76 74 72 70 68 72 67 64 65 66 68 66 66 68 68 71 66
31 39 44 30 30 32 28 24 26 27 28 27 24 42 40 35 31 28 26 27 30 37 44 48 53 66 76 78 75 74 74 71 71 69 69 65 68 69 67 65 62 62 62 64 65 64 68 67 67
24 25 28 28 41 35 24 23 23 25 30 24 22 38 49 37 31 27 27 26 33 43 48 57 55 58 67 62 75 73 73 72 73 77 76 83 78 73 63 63 62 61 63 63 65 62 68 68 68
20 36 38 30 28 27 23 23 23 21 24 25 26 26 31 32 30 30 31 30 33 53 51 52 57 65 59 55 61 76 73 73 78 72 67 72 94 83 63 65 63 64 64 64 63 62 70 71 69
22 29 26 20 19 20 21 25 24 25 26 30 34 35 32 34 33 33 32 34 33 48 48 52 55 46 43 37 63 69 85 75 76 78 83 92 87 86 50 65 65 66 65 64 63 67 71 68 49
19 26 20 18 18 18 19 21 20 20 66 35 40 42 38 37 35 36 30 31 35 34 39 51 43 52 55 66 62 64 89 60 58 74 81 87 85 87 64 51 43 52 67 46 59 59 50 65 60
19 17 17 18 16 17 20 18 21 21 48 23 35 37 41 40 36 37 40 39 48 43 36 35 44 55 61 46 52 61 59 50 67 56 68 66 81 56 85 73 87 76 49 70 55 38 41 54 65
15 15 14 14 15 15 15 22 24 29 28 25 27 35 40 40 36 45 39 39 43 47 51 45 58 60 73 76 84 79 58 62 76 80 65 59 60 65 75 71 62 66 60 63 42 48 53 65 51
13 13 12 13 15 16 19 25 24 32 31 28 33 35 37 37 37 41 41 52 44 48 45 51 62 66 56 55 68 72 71 58 81 85 74 83 92 88 88 58 59 78 69 57 47 75 70 79 68
12 13 13 14 16 18 21 33 36 37 34 36 32 37 40 38 51 78 74 54 52 44 52 45 48 54 61 59 72 74 61 71 88 83 67 66 75 84 73 74 55 67 68 54 64 49 63 45 41
13 13 19 16 16 21 21 39 38 34 33 35 39 41 42 43 43 58 62 88 83 45 59 50 39 46 55 57 77 72 62 46 64 74 80 64 76 75 80 80 58 64 57 73 47 67 91 57 48
13 22 31 20 18 18 20 39 38 34 31 37 42 42 43 50 74 90 83 80 74 61 46 50 49 46 64 64 73 63 60 52 46 70 87 69 61 80 86 75 77 61 72 53 51 64 86 56 48
16 16 14 17 18 20 21 31 34 33 34 36 37 36 64 58 81 74 89 81 65 65 48 53 51 56 62 64 76 62 73 52 53 70 71 65 59 67 76 84 71 56 54 73 52 81 68 53 46
14 14 14 16 18 19 22 25 30 32 33 36 31 38 53 60 72 57 60 64 63 50 50 50 56 61 63 86 77 86 80 69 73 82 70 69 64 69 78 67 76 58 58 84 80 78 64 49 68
13 14 14 16 16 18 24 29 29 30 29 29 33 44 53 56 72 76 50 46 45 40 45 52 56 67 73 81 80 84 59 48 84 83 81 74 77 82 70 66 72 65 62 69 82 69 76 67 58
12 13 15 15 17 15 21 40 38 31 30 31 30 37 40 36 40 41 40 37 35 44 53 60 61 60 65 68 72 62 63 67 94 98 97 93 83 80 69 77 71 72 62 50 73 84 64 54 72
13 11 12 13 15 29 20 48 71 30 31 32 31 31 31 33 29 30 30 31 33 39 40 48 55 59 63 64 60 67 67 89 90 92 67 74 87 88 78 74 74 81 62 70 80 54 71 66 87
12 11 12 12 13 14 20 23 84 24 29 30 30 28 26 25 24 26 27 34 35 36 36 42 52 58 56 61 65 64 74 84 82 92 78 84 80 73 73 71 74 79 62 63 61 65 72 56 50
10 11 12 13 12 17 19 20 87 42 26 27 26 25 25 23 24 26 28 28 29 31 34 40 54 60 59 63 69 78 79 74 79 79 88 93 89 89 73 65 72 76 76 72 62 62 65 73 63
11 12 22 22 16 21 20 21 81 38 21 22 24 24 24 24 25 27 30 32 32 34 34 36 50 60 60 59 60 75 80 68 74 82 89 90 89 85 81 73 74 64 66 64 66 68 68 68 58
12 11 31 52 48 39 23 23 37 20 18 18 20 20 21 22 24 26 29 30 33 34 36 36 42 54 55 58 61 66 64 74 71 67 47 54 64 62 67 59 58 62 70 61 62 56 55 56 51
12 14 21 25 16 21 72 27 21 21 20 20 19 21 22 23 23 24 27 29 31 32 34 37 44 49 50 48 56 61 65 63 64 63 54 45 53 55 62 66 71 63 67 70 67 53 60 63 56
10 9 13 15 27 26 36 24 30 30 26 23 19 20 22 22 22 23 26 29 30 28 29 36 42 45 43 45 47 52 64 62 64 67 64 63 54 55 59 64 68 62 59 63 70 58 62 66 50
10 12 12 10 15 25 68 48 51 28 25 23 20 19 19 20 22 25 25 27 30 30 30 34 44 45 43 47 65 67 69 59 72 65 66 67 66 64 63 70 68 69 71 64 68 69 66 65 65
9 10 9 12 20 38 31 52 38 24 21 19 19 19 19 23 26 29 33 36 39 40 41 46 45 38 35 37 38 44 58 69 59 61 58 58 61 76 82 70 77 80 71 64 73 66 57 64 61
Wind_Speed
11 13 5 5 7 6 10 6 7 6 7 6 9 10 7 15 6 7 19 16 20 20 18 17 16 17 18 17 17 17 16 15 13 12 12 12 12 13 13 13 12 12 12 12 12 11 13 13 13
12 3 6 6 3 3 8 9 7 10 10 6 8 4 12 16 11 17 15 20 21 20 18 18 15 17 18 17 15 16 17 16 13 12 11 11 11 11 12 12 12 11 11 11 12 11 10 12 12
12 5 7 4 2 1 10 8 9 10 1 3 8 12 11 10 8 14 18 21 21 19 18 18 15 16 17 17 15 15 14 15 13 12 11 10 10 9 10 10 10 10 9 9 10 9 10 10 10
6 7 6 2 10 9 11 11 8 9 6 4 1 12 9 8 12 10 19 20 20 18 19 17 16 16 16 16 15 15 15 14 13 12 11 9 9 8 8 8 7 7 7 7 7 7 7 8 9
10 4 3 3 14 9 6 8 4 8 9 9 10 17 12 4 6 20 20 19 19 17 20 17 15 15 14 14 14 13 12 12 12 10 9 8 7 7 7 6 5 4 4 3 4 5 7 7 7
7 3 4 3 11 6 6 7 1 6 4 6 6 14 10 9 15 18 17 18 15 17 19 17 15 14 14 14 13 13 12 11 10 9 8 5 3 4 5 3 1 2 2 2 2 3 4 7 7
12 3 11 10 12 9 7 5 4 6 2 10 1 17 10 14 17 16 15 17 20 17 12 16 15 13 14 14 14 14 13 12 11 10 8 3 1 2 1 3 1 0 2 3 4 4 6 7 8
8 5 5 5 7 8 8 6 3 3 12 8 6 9 11 16 15 16 14 13 17 19 12 10 12 14 12 13 14 14 13 12 14 14 8 9 8 1 1 4 1 2 3 4 5 5 6 8 9
8 5 5 16 2 9 8 5 5 3 10 4 4 7 21 20 17 16 14 14 16 15 16 13 12 10 12 11 11 11 13 12 14 13 11 2 4 4 1 8 7 5 5 6 5 4 7 8 11
10 5 9 7 9 10 9 7 10 8 12 13 11 8 19 20 17 17 16 14 15 21 13 16 14 17 13 11 13 10 8 8 6 5 6 6 6 4 6 8 8 10 9 9 8 8 10 12 8
2 9 4 5 10 10 7 6 4 5 18 5 20 15 17 18 16 16 16 16 15 14 16 11 14 10 10 6 8 6 4 7 7 7 7 7 5 3 4 4 6 5 9 7 8 8 9 8 10
7 4 2 5 3 2 3 5 4 8 11 10 22 18 17 17 16 13 11 9 4 11 11 15 11 7 5 9 9 8 8 8 4 8 10 8 4 7 5 4 5 7 1 6 11 4 2 1 2
8 3 1 1 4 4 3 3 4 8 11 5 14 18 15 16 17 14 17 16 12 11 8 8 8 7 3 5 6 6 9 6 8 5 10 8 7 7 4 3 4 4 3 8 4 1 4 4 6
3 5 6 2 2 5 1 2 6 9 5 3 9 15 15 16 15 11 15 18 15 12 14 9 12 8 7 8 9 6 4 4 1 6 7 6 4 3 2 6 6 6 3 3 3 3 2 3 4
8 10 10 3 2 4 5 6 4 3 1 6 10 11 10 17 15 6 10 8 6 13 9 14 15 13 8 6 6 5 6 6 5 6 8 10 7 5 5 4 6 3 4 4 4 4 4 4 3
13 12 7 8 5 6 11 7 5 4 6 8 10 12 8 4 7 17 11 8 11 6 8 10 11 14 13 10 7 5 5 5 3 3 6 9 8 9 7 4 5 6 4 4 2 5 4 5 5
12 7 20 14 3 1 9 8 5 3 4 6 8 9 10 9 7 15 10 8 10 12 9 8 8 7 9 7 4 6 7 7 7 4 4 8 9 5 5 5 6 7 4 5 4 3 4 4 5
7 14 8 1 7 5 3 4 5 5 3 8 11 8 9 8 13 14 17 15 17 16 10 11 9 5 10 6 6 6 4 7 4 5 6 9 8 9 7 3 6 6 5 3 5 6 2 4 5
8 3 6 9 4 5 1 3 5 7 5 4 2 4 5 9 11 9 10 11 15 12 12 14 13 9 7 6 7 5 6 6 5 5 6 8 8 8 8 7 7 7 6 3 3 3 7 7 4
8 8 9 8 5 10 5 5 5 7 3 1 9 7 12 10 8 9 14 11 12 11 11 7 7 10 7 5 5 6 5 3 4 3 3 5 6 5 8 8 5 9 4 6 5 6 6 8 3
13 14 5 3 7 11 7 6 6 6 7 6 11 13 14 15 18 16 14 12 8 9 8 10 10 9 9 8 5 4 3 2 3 2 3 5 6 9 11 6 8 6 8 8 7 3 8 2 5
15 1 6 10 11 3 16 6 14 11 11 8 11 13 15 11 15 14 13 11 9 9 10 10 10 10 11 12 8 8 5 3 4 5 7 9 9 9 8 10 11 8 8 8 7 8 6 5 3
11 5 12 12 15 17 7 6 15 11 12 12 14 13 14 12 17 14 15 15 16 14 12 10 9 10 9 10 9 6 6 4 4 5 7 7 7 12 10 12 11 9 10 8 8 1 4 3 6
11 10 14 14 17 11 4 17 6 19 11 13 14 14 14 15 14 12 12 10 10 10 9 12 11 10 10 10 10 9 7 6 5 5 5 5 5 7 10 11 10 9 9 8 7 6 5 5 5
15 15 5 10 13 2 14 12 8 23 13 14 15 16 16 14 14 13 13 10 11 9 7 9 12 10 10 10 9 8 8 8 6 6 5 6 5 6 8 10 9 9 10 9 8 6 6 7 6
17 19 9 10 9 5 18 4 10 15 11 16 17 16 16 16 15 14 13 11 8 7 6 6 9 9 9 9 8 7 6 4 6 7 2 8 6 7 10 9 9 9 8 11 10 8 8 9 8
17 17 22 22 15 12 8 5 13 15 15 12 19 18 17 16 15 14 12 10 9 9 8 5 5 6 6 9 7 6 5 5 8 5 2 6 3 8 10 8 8 9 8 7 9 9 9 9 7
19 13 10 17 16 14 1 15 16 16 16 15 18 18 17 16 14 14 11 10 9 10 10 8 6 5 3 3 6 6 5 4 4 6 5 4 5 4 2 6 5 7 10 11 10 10 10 10 8
13 15 18 13 3 11 5 9 19 17 18 18 17 17 16 15 13 12 12 10 8 4 6 7 6 3 1 7 8 5 2 2 4 5 6 5 7 6 7 7 8 8 9 10 10 10 11 10 10
21 15 19 14 8 8 15 5 18 13 19 18 17 16 16 13 12 10 9 8 8 8 10 10 10 9 8 6 6 5 5 3 2 4 6 7 7 5 6 8 8 7 9 10 10 13 12 12 12
Wind_Direction
228 226 268 255 257 207 89 94 137 116 77 77 68 53 76 53 56 82 132 134 138 129 131 149 144 144 144 145 144 144 144 147 139 131 119 112 105 101 99 99 96 97 106 103 101 101 115 117 116
273 318 233 272 284 347 95 132 106 55 77 108 134 160 87 66 65 119 125 137 139 137 151 143 147 144 147 147 147 145 145 148 143 137 125 115 108 106 103 100 96 92 88 99 107 109 108 119 119
256 268 259 259 105 70 112 134 99 109 51 100 94 59 36 78 98 130 126 144 136 142 141 123 145 145 148 149 149 150 148 148 149 140 132 124 116 108 102 100 101 98 95 95 104 114 126 126 128
276 193 221 259 102 37 101 93 131 128 119 62 326 89 96 46 135 116 150 148 137 150 122 131 140 144 150 150 152 152 151 152 151 146 139 131 119 114 108 102 95 94 98 107 109 129 134 123 137
237 255 254 155 77 94 62 111 102 107 66 66 48 79 77 95 121 132 153 149 142 131 123 140 141 143 145 147 150 149 149 152 144 140 136 129 129 122 119 107 106 109 114 120 141 155 148 139 151
272 35 326 135 102 107 102 119 161 151 98 107 103 76 68 125 132 148 161 142 138 122 138 137 141 144 143 145 145 143 142 137 131 123 116 108 112 135 124 114 132 157 182 198 219 193 167 167 173
261 245 147 121 128 131 118 135 200 113 9 74 216 81 107 136 140 149 164 141 158 133 143 150 155 148 148 147 149 147 145 142 132 99 72 52 114 111 143 111 148 317 286 256 257 229 194 194 191
274 264 98 126 99 120 134 146 83 17 83 120 288 114 153 141 158 151 156 151 143 135 151 151 152 160 164 164 161 160 151 142 120 104 67 33 1 302 157 232 318 344 320 305 283 248 195 198 203
262 278 54 70 32 111 123 178 141 327 116 88 72 35 132 147 165 157 163 156 143 138 155 154 159 155 174 168 161 165 160 152 151 157 140 305 314 309 205 330 310 290 283 285 276 232 195 202 211
275 80 51 5 48 123 129 258 155 221 155 141 101 83 139 155 169 168 167 172 173 143 166 159 177 175 166 184 150 173 136 155 148 168 154 185 244 269 281 251 255 260 255 251 235 209 204 213 205
237 50 97 108 10 341 93 193 311 266 5 190 139 147 151 164 178 177 178 173 179 172 161 190 166 163 170 132 148 173 149 176 183 182 181 190 225 271 291 310 278 232 226 246 217 208 222 151 247
211 125 104 14 43 332 311 345 306 318 165 17 127 147 161 173 183 176 163 169 109 151 187 174 141 171 163 160 173 170 188 209 191 200 183 185 201 248 222 252 211 269 210 301 216 252 245 252 138
232 151 216 217 310 279 285 54 12 357 342 321 112 147 172 178 188 168 175 167 159 159 159 191 136 175 160 199 123 151 193 190 189 186 197 201 216 200 266 215 283 264 196 243 247 249 251 204 227
34 257 257 173 291 91 182 117 256 42 345 184 151 156 173 188 184 162 158 159 165 175 183 153 156 171 205 201 152 191 166 203 221 182 193 202 205 150 208 274 281 257 244 13 278 245 196 332 237
266 251 213 178 358 70 145 128 52 42 89 127 173 117 151 204 106 249 50 121 89 173 162 198 171 161 193 240 176 178 200 168 192 153 181 180 184 163 197 221 268 292 298 242 298 251 207 275 281
244 225 203 108 315 121 242 131 122 148 161 153 136 161 173 179 199 107 93 41 10 152 186 176 203 168 177 204 192 189 220 236 153 180 187 170 173 193 170 203 263 284 274 260 309 267 68 289 269
213 296 135 215 69 189 230 116 112 186 156 145 147 181 194 190 79 80 58 113 249 267 200 180 198 188 164 191 172 206 207 229 202 188 195 184 183 169 170 212 219 256 277 318 299 314 113 242 259
255 177 177 43 97 234 122 90 150 173 199 175 196 221 120 164 126 135 156 193 223 234 184 181 186 220 166 169 194 211 214 233 234 197 191 188 189 182 201 238 260 261 262 294 295 350 340 274 287
278 301 277 118 146 236 33 129 163 160 184 191 249 17 82 137 131 154 200 212 215 167 179 180 178 183 178 201 203 197 203 218 219 229 217 174 178 185 215 234 187 241 243 216 307 255 265 280 239
257 241 250 132 177 252 170 149 161 178 132 151 108 126 135 133 145 194 226 191 199 173 174 162 169 187 191 194 212 215 234 238 168 196 141 194 195 198 225 235 220 217 269 211 239 265 272 251 163
233 246 263 167 206 236 193 100 292 170 140 130 122 133 151 148 169 185 185 195 152 147 159 175 187 186 181 205 210 228 220 230 81 14 225 237 203 211 226 238 228 232 244 229 216 211 280 311 335
248 129 257 270 240 148 267 221 246 186 142 165 147 158 164 157 140 163 163 153 155 148 163 166 182 187 192 198 205 207 209 167 188 186 204 214 209 215 236 222 232 211 244 254 203 201 234 245 238
267 249 264 240 251 230 199 291 324 170 161 154 159 167 161 163 143 151 157 166 164 167 163 159 176 183 198 200 232 190 220 216 205 176 211 235 207 208 225 222 226 223 233 234 252 283 230 245 265
267 246 243 238 244 240 243 259 73 290 127 147 154 162 148 159 151 154 130 142 145 152 168 156 172 194 206 204 211 215 245 217 210 220 198 212 217 212 211 211 210 218 235 235 233 249 261 275 302
228 244 237 255 228 104 239 269 176 253 142 146 153 156 159 157 151 151 156 170 160 164 188 168 174 194 202 209 216 209 226 228 235 210 207 204 197 195 209 203 198 200 212 228 224 226 240 237 245
220 243 114 256 321 39 247 143 175 161 128 139 149 156 158 163 162 166 167 169 172 169 201 223 172 199 203 213 223 232 237 251 220 231 269 191 203 201 168 203 204 217 207 210 212 216 227 226 208
239 237 135 236 260 212 63 130 127 137 146 159 150 157 164 167 170 169 167 168 173 169 172 168 163 179 201 201 210 218 225 244 322 330 259 205 220 179 183 186 203 208 211 221 223 223 228 258 216
254 288 254 229 220 272 73 286 126 165 151 169 159 164 169 173 166 158 167 170 183 191 178 169 165 195 199 208 205 207 183 210 244 269 267 296 315 227 217 199 237 236 218 208 221 237 201 237 241
205 248 258 284 54 287 123 325 316 163 167 170 169 166 168 169 169 155 167 160 180 166 113 140 161 185 119 44 47 55 349 271 221 236 244 236 251 246 222 219 239 213 229 227 221 238 261 225 223
246 238 243 250 217 155 249 196 254 205 172 174 163 170 159 158 157 153 153 148 137 134 113 91 91 100 86 85 82 77 94 127 314 296 277 273 265 233 235 234 233 244 242 216 218 228 236 227 246